Regional Weather Roundup
Issued by NWS Upton, NY

Current Version | Previous Version | Graphics & Text | Print | Product List | Glossary Off
Versions: 1 2 3 4 5 6 7 8 9 10 11 12 13 14 15 16 17 18 19 20 21 22 23 24 25 26 27 28 29 30 31 32 33 34 35 36 37 38 39 40 41 42 43 44 45 46 47 48 49 50

000
ASUS41 KOKX 092205
RWROKX

REGIONAL WEATHER ROUNDUP
NATIONAL WEATHER SERVICE NEW YORK NY
600 PM EDT WED JUL 09 2014

NOTE: "FAIR" INDICATES FEW OR NO CLOUDS BELOW 12,000 FEET WITH NO
SIGNIFICANT WEATHER AND/OR OBSTRUCTIONS TO VISIBILITY.

NYZ071-072-176-178-NJZ106-104-092300-
NEW YORK CITY METRO AREA


CITY           SKY/WX    TMP DP  RH WIND       PRES   REMARKS
CENTRAL PARK   PTSUNNY   82  69  64 VRB5      29.87F
LAGUARDIA APRT PTSUNNY   82  67  60 S14       29.83F
KENNEDY INTL   PTSUNNY   79  67  66 S16       29.86F
NEWARK/LIBERTY PTSUNNY   88  66  48 S16       29.83F HX  90
BRNX BOT. GARD   N/A     81  68  65 SE10      29.85S
TETERBORO      PTSUNNY   89  66  46 SE12      29.82F HX  91
$$

NYZ177-179-078>081-092300-
LONG ISLAND NEW YORK

CITY           SKY/WX    TMP DP  RH WIND       PRES   REMARKS
FARMINGDALE    MOSUNNY   80  66  62 S16G23    29.87F
ISLIP          PTSUNNY   81  65  58 S12       29.87F
SHIRLEY        MOSUNNY   79  66  64 S12       29.89F
WESTHAMPTON    SUNNY     78  66  66 S8G17     29.91S
MONTAUK POINT    N/A     76  67  73 S8        29.91S
$$

NYZ052-065-067-092300-
HUDSON VALLEY

CITY           SKY/WX    TMP DP  RH WIND       PRES   REMARKS
WHITE PLAINS   MOSUNNY   81  69  67 S12G20    29.85F
NEWBURGH       MOSUNNY   79  64  61 W7        29.86F
MONTGOMERY     MOSUNNY   80  65  59 SW6       29.84F
POUGHKEEPSIE   MOSUNNY   82  63  52 S5        29.83F
ALBANY         PTSUNNY   79  63  57 CALM      29.81F
$$

NJZ001-105-106-008-010-013-015-019>022-104-092300-
NEW JERSEY

CITY           SKY/WX    TMP DP  RH WIND       PRES   REMARKS
NEWARK/LIBERTY PTSUNNY   88  66  48 S16       29.83F HX  90
TETERBORO      PTSUNNY   89  66  46 SE12      29.82F HX  91
CALDWELL       PTSUNNY   86  65  49 W7        29.84F
MORRISTOWN     PTSUNNY   86  66  51 SW12      29.84F
SOMERVILLE     PTSUNNY   86  67  52 VRB6      29.83R
LINDEN         FAIR      89  63  42 SW6       29.86R
SUSSEX         MOSUNNY   79  70  74 CALM      29.86S
ANDOVER          N/A     76  68  76 CALM      29.86F
TRENTON        PTSUNNY   84  66  54 SW10      29.86R
MILLVILLE      PTSUNNY   83  71  67 S6        29.90R
ATLANTIC CITY  MOSUNNY   82  70  66 S14       29.91R
WRIGHTSTOWN    MOSUNNY   85  66  53 SW13      29.86R
TOMS RIVER     MOSUNNY   86  68  54 SW10      29.88R
BELMAR         MOSUNNY   86  66  51 SW7       29.87R
$$

PAZ047>061-062-071-092300-
EASTERN PENNSYLVANIA

CITY           SKY/WX    TMP DP  RH WIND       PRES   REMARKS
PHILADELPHIA   CLOUDY    86  61  42 SW15      29.88R
ALLENTOWN      LGT RAIN  81  67  62 W14       29.88R
SCRANTON       PTSUNNY   73  61  64 NW12      29.90R
$$

CTZ002-004>006-009-010-012-RIZ004-006-007-MAZ004-011-015-092300-
SOUTHERN NEW ENGLAND
 IN CT

CITY           SKY/WX    TMP DP  RH WIND       PRES   REMARKS
BRADLEY INTL   PTSUNNY   86  60  41 SW12G17   29.83S
HARTFORD       MOSUNNY   84  62  47 S14       29.84R
DANBURY        MOSUNNY   80  64  58 S7        29.86F
WTRBRY/OXFORD  MOSUNNY   81  64  57 S9        29.90F
BRIDGEPORT     MOSUNNY   80  68  66 S16       29.85F
MERIDEN        MOSUNNY   83  64  52 S10       29.85F
NEW HAVEN      PTSUNNY   81  68  64 S9        29.86F
CHESTER        FAIR      79  66  65 S10       29.89S
GROTON         SUNNY     74  68  81 SW6       29.88S
WILLIMANTIC    SUNNY     83  63  50 S12       29.86F

 IN RI

CITY           SKY/WX    TMP DP  RH WIND       PRES   REMARKS
PROVIDENCE     MOSUNNY   81  64  56 SW10      29.88S
BLOCK ISLAND   PTSUNNY   73  64  73 SW16G23   29.91S
WESTERLY       MOSUNNY   76  67  73 S13       29.90S

 IN MA

CITY           SKY/WX    TMP DP  RH WIND       PRES   REMARKS
BOSTON         PTSUNNY   86  60  41 SW15G24   29.83S
WORCESTER      SUNNY     81  62  52 SW15      29.88F
WESTFIELD      LGT RAIN  85  60  42 SW13      29.83S
PROVINCETOWN   NOT AVBL
NANTUCKET      PTSUNNY   69  67  93 SW7       29.93S FOG
$$

ANZ330-335-338-340-345-350-353-355-092300-
COASTAL MARINE OBSERVATIONS


STATION/POSITION TIME  SKY/WX   TEMP    WIND        PRES    VSBY  WAVE
                                AIR SEA DIR/SP/G                  HT/PER
                 (UTC)          (F)     (DEG/KT/KT) (MB)    (MI)  (FT/S)
NY HARB ENTRANCE NOT AVBL
4S FIRE IS       2100               68                N/A           5/ 8
23SW MTP         2200            70 66              1011.8          5/ 8
HUDSON CANYON    2200            72 70  210/ 12/ 14 1012.6          5/ 8
EXECUTION ROCKS  2200            79 67  180/ 14/ 17   N/A
WESTERN LI SOUND 2200            77     170/ 12/ 16   N/A           1
CENTRAL LI SOUND 2100            75 72  200/ 12/ 14   N/A           0
EASTERN LI SOUND 2100            74 67  210/  8/ 12   N/A
ROBBINS REEF     2200            76     170/ 16/ 17   N/A
$$


>>>>>>>>>>>>>>>>>>>>>>>>>>>> KEY <<<<<<<<<<<<<<<<<<<<<<<<<<<
>                                                          <
>     SKY/WX - SKY CONDITION/PRESENT WEATHER               <
>     TMP    - TEMPERATURE IN FAHRENHEIT                   <
>     DP     - DEWPOINT IN FAHRENHEIT                      <
>     RH     - RELATIVE HUMIDITY IN PERCENT                <
>     WIND   - DIRECTION AND SPEED IN MPH                  <
>     PRES   - MEAN SEA LEVEL PRESSURE IN INCHES OF HG     <
>     WCI    - WIND CHILL INDEX                            <
>     VSB    - VISIBILITY IN MILES                         <
>     HX     - HEAT INDEX                                  <
>     TC     - TEMPERATURE IN CELSIUS                      <
>     VRB    - VARIABLE WIND DIRECTION                     <
>                                                          <
>>>>>>>>>>>>>>>>>>>>>>>>>>>> KEY <<<<<<<<<<<<<<<<<<<<<<<<<<<





USA.gov is the U.S. government's official web portal to all federal, state and local government web resources and services.